Meath Environmental Platform

Observations for Trim Patrick St

Time AQI Temp °C Hum % Pres Pa CO μg/m³ H₂S μg/m³ NO μg/m³ NO₂ μg/m³ O₃ μg/m³ SO₂ μg/m³ PM1 μg/m³ PM2.5 μg/m³ PM10 μg/m³
Wednesday 26 August 2026
15:19 2 26.6 58 75,446 0 0 2.8 6.52 64.48 6.96 3.71 9.61 10.57
15:18 2 26.6 60 75,570 0 0 2.77 6.73 64.35 6.75 9.71 14.72 16.2
15:17 2 26.5 61 75,705 0 0 2.88 5.52 65.05 7.38 9.71 13.85 15.24
15:16 2 26.4 61 75,833 0 0 3.04 12.21 73.61 6.61 8.86 13.09 14.4
15:15 2 26.3 61 75,894 0 0 2.94 7.41 64.75 6.91 8.86 14.61 16.07
15:14 2 26.2 58 76,034 0 0 2.74 9.26 62.45 5.96 9.71 14.82 16.3
15:09 2 26.2 61 76,830 0 0 3.03 4.52 59.74 7.02 8 13.09 14.4
15:08 2 26.1 62 77,081 0 0 3.14 13.88 56.46 7.34 8 11.59 12.75
15:07 2 26.1 62 77,127 0 0 3.23 11.49 60.37 6.87 8.86 14.47 15.92
15:06 2 26.1 62 77,186 0 0 3.16 13.49 58.33 7.26 9.71 14.52 15.97
15:05 2 26.1 64 77,223 0 0 3.28 11.23 58.95 6.73 8.86 14.33 15.76
15:04 2 26.1 62 77,329 0 0 3.18 9.61 59.03 7.7 8.86 14.48 15.93
15:03 2 26 61 77,443 0 0 3.01 13.26 64.61 5.68 8 14.58 16.04
15:02 2 26 62 77,481 0 0 2.91 6.14 57.16 6.8 12.29 18.93 20.82
15:01 2 26 61 77,616 0 0 2.73 14.39 60.3 6.44 9.71 16.08 17.69
15:00 2 26 61 77,561 0 0 2.86 9.48 58 6.69 11.43 17.6 19.36
14:59 2 26.1 62 77,648 0 0 3.09 12.28 57.54 7.84 9.71 15.26 16.79
14:58 2 26.1 62 77,634 0 0 3.02 11.31 64.78 6.44 8.86 15.27 16.8
14:57 2 26.1 61 77,772 0 0 3.08 7.46 60.98 5.81 10.57 16.83 18.51
14:56 2 26.1 62 78,023 0 0 3.22 5.16 58.16 6.88 12.29 17.44 19.18